sat.trackr.live / text

‹ back to catalog

LEMUR-2-MYNAMEISJEFF

NORAD 62712 · 2025-009DH

PAYLOAD ACTIVE UNKNOWN

§ Identity

Operator
Country
US
Launch date
2025-01-14
Launch site
AFWTR
Launch vehicle
Mass (kg)
RCS (m²)

Purposes: earth_obs

External: N2YO · Heavens-Above · Gunter

§ Orbital elements

Epoch: 2026-05-24T04:49:19.202016Z

Period
95.79 min
Inclination
97.7275°
Eccentricity
0.0001321
Mean motion
15.03332010 rev/d
Perigee alt
555.7 km
Apogee alt
557.5 km
Semi-major
6,934.8 km
B*
4.5168e-4
RAAN
227.2920°
Arg perigee
233.1803°
Mean anomaly
126.9301°
Rev number
7,402

§ Raw data

LEMUR-2-MYNAMEISJEFF1 62712U 25009DH  26144.20091669  .00006071  00000+0  45168-3 0  99942 62712  97.7275 227.2920 0001321 233.1803 126.9301 15.03332010 74021

JSON: /api/v1/satellites/62712 · /tle

For live sub-satellite position, see the globe view (requires WebGL).

§ Visibility from observer

Set your observer location to see the next 7 days of passes ≥ 10°. The values pass through the URL so the page stays shareable.

No JS? Fill the form by hand. The geolocation button needs JavaScript.